Location: Lourdes
(43.1000°N, 0.0500°W)
Time: 04:14:10
(UTC+00:00)

Meteor 1-14 Rocket - Pass Details

Date: 30 November 2020
Orbit: 834 x 919 km, 81.3° (Epoch: 24 January)

Event Time Altitude Azimuth Distance (km) Brightness Sun altitude
Rises 17:57:56 0° 350° (N) 3,550 7.4 -16.2°
Reaches altitude 10° 18:00:24 10° 352° (N) 2,611 6.7 -16.7°
Maximum altitude 18:06:24 82° 80° (E) 934 4.3 -17.7°
Drops below altitude 10° 18:12:23 10° 168° (SSE) 2,604 6.7 -18.8°
Sets 18:14:50 0° 169° (S) 3,539 7.5 -19.2°
